Adolfo Ruiz Cortinez, Mexico

2:22 AM CST on January 24, 2018 (GMT -0600)
Adolfo Ruiz Cortinez

Weather History for 76738 - March, 2013

Change the Weather History Date:

Saturday, March 16, 2013

  Actual Average Record
Temperature  
Mean Temperature 64 °F -  
Max Temperature 77 °F 84 °F - ()
Min Temperature 51 °F 70 °F - ()
Degree Days  
Heating Degree Days 1    
Growing Degree Days 14 (Base 50)    
Moisture  
Dew Point 59 °F    
Average Humidity 67    
Maximum Humidity 100    
Minimum Humidity 31    
Precipitation  
Precipitation 0.01 in - - ()
Sea Level Pressure  
Sea Level Pressure 29.97 in    
Wind  
Wind Speed 3 mph ()    
Max Wind Speed 12 mph    
Max Gust Speed -    
Visibility 7.9 miles    
Events      
T = Trace of Precipitation, MM = Missing Value Source: Averaged Metar Reports

Daily Weather History Graph

Daily Weather History Graph

Search for Another Location

Airport or City:

Trip Planner

Search our weather history database for the weather conditions in past years. The results will help you decide how hot, cold, wet, or windy it might be!

Date:

Astronomy

Mar. 16, 2013 Rise Set
Actual Time 6:27 AM CST 6:30 PM CST
Civil Twilight 6:05 AM CST 6:51 PM CST
Nautical Twilight 5:40 AM CST 7:17 PM CST
Astronomical Twilight 5:15 AM CST 7:42 PM CST
Moon 9:40 AM CST (3/16) 10:54 PM CST (3/16)
Length of Visible Light 12h 46m
Length of Day
12h 03m
Waxing Crescent, 23% of the Moon is Illuminated
Mar 16
Waxing Crescent
Mar 19
First Quarter
Mar 27
Full
Apr 2
Last Quarter
Apr 10
New

Hourly Weather History & Observations

Time (CST) Temp. Dew Point Humidity Pressure Visibility Wind Dir Wind Speed Gust Speed Precip Events Conditions
12:00 AM 55 °F 53 °F 92% 30.12 in - NW 2.2 mph - -  
3:00 AM 52 °F 52 °F 99% 30.08 in - Calm Calm - -  
6:00 AM 51 °F 51 °F 100% 30.07 in - Calm Calm - -  
7:00 AM 64.4 °F 60.8 °F 88% 29.97 in 6.0 mi Calm Calm - N/A   Haze
7:50 AM 66.2 °F 60.8 °F 83% 29.99 in 8.0 mi Calm Calm - N/A   Mostly Cloudy
9:00 AM 63 °F 51 °F 55% 30.00 in - East 2.2 mph - -  
9:10 AM 69.8 °F 62.6 °F 78% 29.99 in 8.0 mi Calm Calm - N/A   Overcast
10:05 AM 73.4 °F 62.6 °F 69% 29.99 in 8.0 mi NNE 9.2 mph - N/A   Overcast
10:07 AM 73.4 °F 62.6 °F 69% 30.22 in 8.0 mi NNE 9.2 mph - N/A   Overcast
10:45 AM 75.2 °F 62.6 °F 65% 29.99 in 8.0 mi NNE 9.2 mph - N/A   Overcast
11:45 AM 75.2 °F 62.6 °F 65% 29.95 in 8.0 mi Calm Calm - N/A   Overcast
11:55 AM 75.2 °F 62.6 °F 65% 29.95 in 8.0 mi Calm Calm - N/A   Overcast
12:00 PM 68 °F 54 °F 50% 29.93 in - SE 4.5 mph - -  
12:45 PM 77.0 °F 62.6 °F 61% 30.14 in 8.0 mi Calm Calm - N/A   Mostly Cloudy
1:50 PM 77.0 °F 62.6 °F 61% 29.87 in 8.0 mi Calm Calm - N/A   Mostly Cloudy
2:55 PM 77.0 °F 62.6 °F 61% 29.84 in 8.0 mi NNE 11.5 mph - N/A   Mostly Cloudy
3:00 PM 70 °F 57 °F 54% 29.81 in - East 2.2 mph - -  
3:51 PM 77.0 °F 62.6 °F 61% 30.03 in 8.0 mi NNE 11.5 mph - N/A   Mostly Cloudy
4:45 PM 77.0 °F 62.6 °F 61% 29.81 in 8.0 mi NNE 11.5 mph - N/A   Overcast
5:50 PM 73.4 °F 62.6 °F 69% 30.04 in 8.0 mi NNE 11.5 mph - N/A   Overcast
6:00 PM 72 °F 48 °F 31% 29.81 in - SW 4.5 mph - -  
6:51 PM 71.6 °F 62.6 °F 73% 29.84 in 8.0 mi NNE 11.5 mph - N/A   Scattered Clouds
9:00 PM 67 °F 46 °F 36% 29.90 in - SSW 4.5 mph - -